Weather in Schengen

Luxembourg     49°28′17″N   6°21′55″E
temp.,
°C
wind,
m/s
gust,
m/s
humid.,
%
clouds,
%
prec.,
mm/h
press.,
hPa
HPBL,
m
10 august, wed
wed1023:00+20nne45420 0.0 102461
02:00+16nne35561 0.0 102471
05:00+15nne34620 0.0 102446
08:00+18nne34511 0.0 1024139
11:00+27e46280 0.0 10231718
14:00+30e6722100 0.0 10222401
17:00+30ene672029 0.0 10202447
20:00+27ene58230 0.0 1020618
11 august, thu
thu1123:00+20ene33380 0.0 102126
02:00+17nne33455 0.0 102129
05:00+15nne22500 0.0 102118
08:00+18nne34430 0.0 1022125
11:00+27e68261 0.0 10201761
14:00+31e68195 0.0 10192274
17:00+32e67175 0.0 10172520
20:00+28ene5821100 0.0 1017499
12 august, fri
fri1223:00+21ene2336100 0.0 101822
02:00+18ne22405 0.0 101918
05:00+16nne33441 0.0 101826
08:00+19ne24384 0.0 1018127
11:00+29e57234 0.0 10171731
14:00+31e56191 0.0 10162407
17:00+32e56180 0.0 10142726
20:00+29e58210 0.0 1015447
13 august, sat
sat1323:00+20ene22350 0.0 101511
02:00+17ne12424 0.0 101611
05:00+16ne22485 0.0 101712
08:00+19ne234047 0.0 1017108
11:00+27ese45255 0.0 10171539
14:00+30e55204 0.0 10162266
17:00+32e44184 0.0 10152490
20:00+28ene462318 0.0 1016221
14 august, sun
sun1423:00+21e22362 0.0 101613
02:00+18ne11430 0.0 101611
05:00+16ne22475 0.0 101616
08:00+19ene224075 0.0 101682
11:00+29se342213 0.0 1015873
14:00+33ese4416100 0.0 10122729
17:00+33ese4415100 0.0 10103028
20:00+29e3721100 0.0 1010150